Richlands, NC

3:17 PM EST on January 24, 2017 (GMT -0500)
Ellis

Weather History for KOAJ - November, 2012

Change the Weather History Date:

Wednesday, November 14, 2012

  Actual Average Record
Temperature  
Mean Temperature 46 °F -  
Max Temperature 50 °F 61 °F 78 °F (2005)
Min Temperature 42 °F 39 °F 21 °F (2013)
Degree Days  
Heating Degree Days 19    
Moisture  
Dew Point 39 °F    
Average Humidity 74    
Maximum Humidity 87    
Minimum Humidity 62    
Precipitation  
Precipitation 0.00 in - - ()
Sea Level Pressure  
Sea Level Pressure 30.37 in    
Wind  
Wind Speed 11 mph (North)    
Max Wind Speed 15 mph    
Max Gust Speed 24 mph    
Visibility 10 miles    
Events      
Averages and records for this station are not official NWS values.
T = Trace of Precipitation, MM = Missing Value Source: NWS Daily Summary

Daily Weather History Graph

Daily Weather History Graph

Search for Another Location

Airport or City:

Trip Planner

Search our weather history database for the weather conditions in past years. The results will help you decide how hot, cold, wet, or windy it might be!

Date:

Astronomy

Nov. 14, 2012 Rise Set
Actual Time 6:44 AM EST 5:05 PM EST
Civil Twilight 6:17 AM EST 5:32 PM EST
Nautical Twilight 5:46 AM EST 6:02 PM EST
Astronomical Twilight 5:16 AM EST 6:32 PM EST
Moon 7:28 AM EST (11/14) 5:54 PM EST (11/14)
Length of Visible Light 11h 15m
Length of Day
10h 21m
New Moon, 1% of the Moon is Illuminated
Nov 14
New Moon
Nov 20
First Quarter
Nov 28
Full
Dec 6
Last Quarter
Dec 13
New

Hourly Weather History & Observations

Time (EST) Temp. Windchill Dew Point Humidity Pressure Visibility Wind Dir Wind Speed Gust Speed Precip Events Conditions
12:15 AM 44.6 °F 39.7 °F 41.0 °F 87% 30.36 in 5.0 mi North 9.2 mph 17.3 mph N/A   Overcast
12:35 AM 44.6 °F 38.8 °F 41.0 °F 87% 30.37 in 5.0 mi North 11.5 mph 16.1 mph N/A   Overcast
12:55 AM 44.6 °F 38.1 °F 39.2 °F 81% 30.36 in 9.0 mi North 13.8 mph 17.3 mph N/A   Overcast
1:15 AM 44.6 °F 37.8 °F 39.2 °F 81% 30.36 in 10.0 mi North 15.0 mph 20.7 mph N/A   Overcast
1:35 AM 44.6 °F 38.1 °F 39.2 °F 81% 30.36 in 10.0 mi North 13.8 mph 21.9 mph N/A   Overcast
1:55 AM 44.6 °F 38.4 °F 39.2 °F 81% 30.35 in 10.0 mi North 12.7 mph 19.6 mph N/A   Overcast
2:15 AM 44.6 °F 38.1 °F 39.2 °F 81% 30.35 in 10.0 mi North 13.8 mph 19.6 mph N/A   Overcast
2:35 AM 44.6 °F 38.8 °F 39.2 °F 81% 30.35 in 10.0 mi North 11.5 mph 16.1 mph N/A   Overcast
2:55 AM 44.6 °F 38.8 °F 39.2 °F 81% 30.35 in 10.0 mi North 11.5 mph 18.4 mph N/A   Overcast
3:15 AM 44.6 °F 38.4 °F 39.2 °F 81% 30.35 in 10.0 mi North 12.7 mph 20.7 mph N/A   Overcast
3:35 AM 44.6 °F 38.4 °F 39.2 °F 81% 30.35 in 10.0 mi North 12.7 mph 19.6 mph N/A   Overcast
3:55 AM 44.6 °F 39.2 °F 39.2 °F 81% 30.35 in 10.0 mi North 10.4 mph 17.3 mph N/A   Overcast
4:15 AM 44.6 °F 38.1 °F 39.2 °F 81% 30.36 in 10.0 mi North 13.8 mph 18.4 mph N/A   Overcast
4:35 AM 44.6 °F 38.4 °F 39.2 °F 81% 30.35 in 10.0 mi North 12.7 mph 19.6 mph N/A   Overcast
4:55 AM 44.6 °F 38.1 °F 39.2 °F 81% 30.37 in 10.0 mi North 13.8 mph 19.6 mph N/A   Overcast
5:15 AM 44.6 °F 38.4 °F 39.2 °F 81% 30.37 in 10.0 mi North 12.7 mph 18.4 mph N/A   Overcast
5:35 AM 44.6 °F 38.8 °F 39.2 °F 81% 30.38 in 10.0 mi North 11.5 mph 17.3 mph N/A   Overcast
5:55 AM 44.6 °F 38.8 °F 39.2 °F 81% 30.38 in 10.0 mi North 11.5 mph 16.1 mph N/A   Overcast
6:15 AM 44.6 °F 38.8 °F 39.2 °F 81% 30.38 in 10.0 mi North 11.5 mph 17.3 mph N/A   Overcast
6:35 AM 44.6 °F 38.8 °F 37.4 °F 76% 30.38 in 10.0 mi North 11.5 mph 17.3 mph N/A   Overcast
6:55 AM 44.6 °F 39.2 °F 37.4 °F 76% 30.38 in 10.0 mi North 10.4 mph 17.3 mph N/A   Overcast
7:15 AM 42.8 °F 37.0 °F 37.4 °F 81% 30.38 in 10.0 mi North 10.4 mph 19.6 mph N/A   Overcast
7:35 AM 44.6 °F 40.2 °F 37.4 °F 76% 30.40 in 10.0 mi North 8.1 mph 16.1 mph N/A   Overcast
7:55 AM 44.6 °F 39.7 °F 37.4 °F 76% 30.40 in 10.0 mi North 9.2 mph - N/A   Overcast
8:15 AM 44.6 °F 38.8 °F 35.6 °F 71% 30.41 in 10.0 mi North 11.5 mph - N/A   Overcast
8:35 AM 44.6 °F 39.7 °F 35.6 °F 71% 30.41 in 10.0 mi North 9.2 mph - N/A   Overcast
8:55 AM 44.6 °F 39.2 °F 35.6 °F 71% 30.41 in 10.0 mi North 10.4 mph 18.4 mph N/A   Overcast
9:15 AM 44.6 °F 39.2 °F 37.4 °F 76% 30.42 in 10.0 mi North 10.4 mph - N/A   Overcast
9:35 AM 44.6 °F 39.2 °F 35.6 °F 71% 30.42 in 10.0 mi North 10.4 mph 17.3 mph N/A   Overcast
9:55 AM 46.4 °F 41.1 °F 37.4 °F 71% 30.43 in 10.0 mi North 11.5 mph 16.1 mph N/A   Overcast
10:15 AM 46.4 °F 41.5 °F 37.4 °F 71% 30.43 in 10.0 mi North 10.4 mph 18.4 mph N/A   Overcast
10:35 AM 46.4 °F 42.4 °F 37.4 °F 71% 30.43 in 10.0 mi North 8.1 mph 17.3 mph N/A   Overcast
10:55 AM 46.4 °F 41.9 °F 37.4 °F 71% 30.43 in 10.0 mi North 9.2 mph - N/A   Overcast
11:15 AM 48.2 °F - 37.4 °F 66% 30.42 in 10.0 mi North 9.2 mph - N/A   Overcast
11:35 AM 48.2 °F - 37.4 °F 66% 30.42 in 10.0 mi NNW 10.4 mph - N/A   Overcast
11:55 AM 48.2 °F - 37.4 °F 66% 30.40 in 10.0 mi NNW 10.4 mph 16.1 mph N/A   Overcast
12:15 PM 50.0 °F - 37.4 °F 62% 30.39 in 10.0 mi North 11.5 mph - N/A   Overcast
12:35 PM 50.0 °F - 37.4 °F 62% 30.38 in 10.0 mi NNE 9.2 mph - N/A   Overcast
12:55 PM 50.0 °F - 37.4 °F 62% 30.37 in 10.0 mi North 9.2 mph 17.3 mph N/A   Overcast
1:15 PM 50.0 °F - 37.4 °F 62% 30.37 in 10.0 mi North 10.4 mph - N/A   Overcast
1:35 PM 50.0 °F - 39.2 °F 66% 30.37 in 10.0 mi North 12.7 mph - N/A   Overcast
1:55 PM 50.0 °F - 39.2 °F 66% 30.37 in 10.0 mi NNW 8.1 mph - N/A   Overcast
2:15 PM 50.0 °F - 39.2 °F 66% 30.37 in 10.0 mi North 9.2 mph - N/A   Overcast
2:35 PM 50.0 °F - 39.2 °F 66% 30.36 in 10.0 mi North 10.4 mph - N/A   Overcast
2:55 PM 50.0 °F - 39.2 °F 66% 30.35 in 10.0 mi North 9.2 mph - N/A   Overcast
3:15 PM 50.0 °F - 39.2 °F 66% 30.36 in 10.0 mi North 11.5 mph 16.1 mph N/A   Overcast
3:35 PM 50.0 °F - 39.2 °F 66% 30.35 in 10.0 mi NNE 11.5 mph 18.4 mph N/A   Overcast
3:55 PM 48.2 °F - 39.2 °F 71% 30.35 in 10.0 mi North 9.2 mph - N/A   Overcast
4:15 PM 48.2 °F - 39.2 °F 71% 30.35 in 10.0 mi North 9.2 mph - N/A   Overcast
4:35 PM 48.2 °F - 39.2 °F 71% 30.35 in 10.0 mi North 8.1 mph 16.1 mph N/A   Overcast
4:55 PM 48.2 °F - 39.2 °F 71% 30.36 in 10.0 mi North 4.6 mph - N/A   Overcast
5:15 PM 48.2 °F - 41.0 °F 76% 30.36 in 10.0 mi North 8.1 mph - N/A   Overcast
5:35 PM 48.2 °F - 41.0 °F 76% 30.36 in 10.0 mi North 6.9 mph - N/A   Overcast
5:55 PM 48.2 °F - 39.2 °F 71% 30.36 in 10.0 mi North 10.4 mph - N/A   Overcast
6:15 PM 48.2 °F - 39.2 °F 71% 30.36 in 10.0 mi North 9.2 mph - N/A   Overcast
6:35 PM 48.2 °F - 41.0 °F 76% 30.34 in 10.0 mi NNE 10.4 mph 16.1 mph N/A   Overcast
6:55 PM 48.2 °F - 39.2 °F 71% 30.34 in 10.0 mi NNE 13.8 mph 24.2 mph N/A   Overcast
7:15 PM 48.2 °F - 41.0 °F 76% 30.36 in 10.0 mi North 8.1 mph - N/A   Overcast
7:35 PM 48.2 °F - 41.0 °F 76% 30.36 in 10.0 mi North 13.8 mph - N/A   Overcast
7:55 PM 48.2 °F - 41.0 °F 76% 30.36 in 10.0 mi North 6.9 mph - N/A   Overcast
8:15 PM 48.2 °F - 41.0 °F 76% 30.36 in 10.0 mi NNE 10.4 mph - N/A   Overcast
8:35 PM 48.2 °F - 39.2 °F 71% 30.36 in 10.0 mi NNE 13.8 mph 19.6 mph N/A   Overcast
8:55 PM 48.2 °F - 39.2 °F 71% 30.36 in 10.0 mi NNE 13.8 mph - N/A   Overcast
9:15 PM 46.4 °F 41.5 °F 39.2 °F 76% 30.37 in 10.0 mi NNE 10.4 mph 17.3 mph N/A   Overcast
9:35 PM 46.4 °F 41.1 °F 39.2 °F 76% 30.37 in 10.0 mi NNE 11.5 mph - N/A   Overcast
9:55 PM 46.4 °F 41.1 °F 39.2 °F 76% 30.37 in 10.0 mi NNE 11.5 mph - N/A   Overcast
10:15 PM 46.4 °F 40.7 °F 39.2 °F 76% 30.35 in 10.0 mi NE 12.7 mph - N/A   Overcast
10:35 PM 46.4 °F 41.5 °F 39.2 °F 76% 30.35 in 10.0 mi NNE 10.4 mph - N/A   Overcast
10:55 PM 46.4 °F 40.4 °F 37.4 °F 71% 30.34 in 10.0 mi NNE 13.8 mph 18.4 mph N/A   Overcast
11:15 PM 46.4 °F 42.9 °F 37.4 °F 71% 30.34 in 10.0 mi North 6.9 mph - N/A   Overcast
11:35 PM 44.6 °F 42.2 °F 37.4 °F 76% 30.35 in 10.0 mi NNW 4.6 mph - N/A   Overcast
11:55 PM 44.6 °F 40.7 °F 37.4 °F 76% 30.34 in 10.0 mi North 6.9 mph - N/A   Mostly Cloudy